Home   Weather   Saarlouis   Past weeks

Flag for Germany Past Weather in Saarlouis, Saarland, Germany — Yesterday and Last 2 Weeks

41 °F


Feels Like: 39 °F
Forecast: 44 / 61 °F
Wind: 3 mph from West

Location: Saarbruecken / Ensheim

Current Time: Oct 28, 2016 at 4:41:37 AM

Latest Report: Oct 28, 2016 at 4:20 AM

Visibility: 0 mi

Pressure: 30.51 "Hg

Humidity: 100%

Dew Point: 41 °F

Location of SaarlouisLocation

Past Weather in Saarlouis — Graph


Saarlouis Temperature Yesterday

Maximum temperature yesterday: 46 °F (at 3:20 PM)
Minimum temperature yesterday: 37 °F (at 3:50 AM)
Average temperature yesterday: 42 °F

High & Low Weather Summary for the Past Weeks

High64 °F (Oct 16, 2:20 PM)100% (Oct 14, 9:50 PM)30.57 "Hg (Oct 14, 9:50 PM)
Low36 °F (Oct 21, 10:50 PM)56% (Oct 16, 3:20 PM)29.65 "Hg (Oct 14, 4:50 PM)
Average48 °F90%30.05 "Hg
* Reported Oct 13 3:20 AM — Oct 28 3:20 AM, Saarlouis, Weather by CustomWeather, © 2016

Note: Actual official high and low records may vary slightly from our data, if they occured in-between our weather recording intervals... More about our weather records


Saarlouis Weather History for the Previous 24 Hours

Scroll right to see more
Time TempWeatherWind HumidityBarometerVisibility
3:20 AM
Fri, Oct 28
41 °FPassing clouds.2 mph100%30.51 "Hg0 mi
2:50 AM41 °FPassing clouds.2 mph100%30.54 "Hg0 mi
2:20 AM43 °FClear.2 mph100%30.54 "Hg0 mi
1:50 AM43 °FClear.2 mph100%30.54 "Hg0 mi
1:20 AM43 °FPassing clouds.2 mph100%30.54 "Hg0 mi
12:50 AM43 °FPassing clouds.3 mph100%30.54 "Hg0 mi
12:20 AM43 °FPassing clouds.2 mph100%30.54 "Hg0 mi
11:50 PM
Thu, Oct 27
43 °FClear.3 mph100%30.54 "Hg0 mi
11:20 PM43 °FClear.2 mph100%30.54 "Hg0 mi
10:50 PM43 °FFog.2 mph100%30.54 "Hg0 mi
10:20 PM45 °FFog.1 mph93%30.54 "Hg0 mi
9:50 PM45 °FFog.1 mph100%30.54 "Hg0 mi
9:20 PM45 °FFog.2 mph100%30.54 "Hg0 mi
8:50 PM45 °FFog.2 mph93%30.54 "Hg0 mi
8:20 PM45 °FFog.1 mph93%30.54 "Hg0 mi
7:50 PM45 °FFog.3 mph100%30.54 "Hg0 mi
7:20 PM45 °FFog.2 mph100%30.54 "Hg0 mi
6:50 PM45 °FFog.2 mph100%30.54 "Hg0 mi
6:20 PM46 °FFog.2 mph93%30.54 "Hg0 mi
5:50 PM46 °FFog.3 mph93%30.54 "Hg0 mi
5:20 PM46 °FFog.5 mph93%30.54 "Hg0 mi
4:50 PM46 °FFog.3 mph93%30.54 "Hg0 mi
4:20 PM46 °FFog.3 mph100%30.54 "Hg1 mi
3:50 PM46 °FFog.2 mph100%30.54 "Hg1 mi
3:20 PM46 °FFog.2 mph100%30.54 "Hg1 mi
2:50 PM45 °FFog.2 mph100%30.54 "Hg0 mi
2:20 PM45 °FFog.2 mph100%30.54 "Hg0 mi
1:50 PM45 °FFog.2 mph100%30.57 "Hg0 mi
1:20 PM43 °FFog.2 mph100%30.57 "Hg0 mi
12:50 PM43 °FFog.2 mph100%30.57 "Hg0 mi
12:20 PM41 °FFog.2 mph100%30.57 "Hg0 mi
11:50 AM41 °FFog.3 mph100%30.57 "Hg0 mi
11:20 AM41 °FFog.2 mph100%30.57 "Hg0 mi
10:50 AM39 °FFog.2 mph100%30.54 "Hg0 mi
10:20 AM39 °FFog.1 mph100%30.54 "Hg0 mi
9:50 AM37 °FFog.1 mph100%30.54 "Hg0 mi
9:20 AM37 °FFog.1 mph100%30.54 "Hg0 mi
8:50 AM37 °FFog.2 mph100%30.51 "Hg0 mi
8:20 AM37 °FFog.1 mph100%30.51 "Hg0 mi
7:50 AM37 °FFog.2 mph100%30.51 "Hg0 mi
7:20 AM37 °FFog.2 mph100%30.48 "Hg0 mi
6:50 AM37 °FFog.No wind100%30.48 "Hg0 mi
6:20 AM37 °FFog.2 mph100%30.48 "Hg0 mi
5:50 AM37 °FFog.3 mph100%30.48 "Hg0 mi
5:20 AM37 °FChilly.1 mph100%30.48 "Hg0 mi
4:50 AM37 °FChilly.2 mph100%30.45 "Hg0 mi
4:20 AM37 °FChilly.1 mph100%30.45 "Hg0 mi
Weather by CustomWeather, © 2016

See weather overviewHow to use our weather pages